Location: Northam
(31.6525°S, 116.6655°E)
Time: 17:27:51
(UTC+08:00)

Hubble Space Telescope - Pass Details

Date: 22 May 2021
Orbit: 535 x 539 km, 28.5° (Epoch: 17 June)

Event Time Altitude Azimuth Distance (km) Brightness Sun altitude
Rises 18:22:54 0° 275° (W) 2,689 6.1 -13.2°
Reaches altitude 10° 18:25:12 10° 279° (W) 1,798 4.9 -13.7°
Maximum altitude 18:29:16 54° 356° (N) 660 1.3 -14.5°
Enters shadow 18:31:55 20° 67° (ENE) 1,276 2.2 -15.0°
